Content
SEND FEEDBACK

Daily
Averages
Monthly
Summary
United States of America

WOOSTER, OHIO


Home > North America > United States > Ohio
Elevation: 1150 feet     Latitude: 40 50N     Longitude: 081 54W

WEATHER
 
SELECT A DAY
Number of Records: 210,317;   Date Range: 12/11/96 - 8/30/14
 
SHARE

PRINT THIS DATA

[ ← Previous Day ]
WEATHER ALMANAC - FEBRUARY 13, 2013
[ Next Day → ]
[ °C ]   °F
Weather ElementAverageHighLow
Temperature27.8 °F30.9 °F (12:56 pm)24.1 °F (2:56 am)
Dewpoint23.7 °F25 °F (8:56 am)21 °F (2:56 am)
Humidity84.7 %93 % (7:28 am)79 % (11:56 am)
Barometer29.82 in29.92 in (1:56 am)29.72 in (2:14 pm)
Wind Speed4.3 mph10.4 mph (9:28 am)
Weather ElementAverage
Visibility5.5 mi
Wind DirectionESE (122.3 °)

Weather ElementTotal
Precipitation---
Heating Degree Days37.5 (Base 65)
Averaged from 31 records on February 13, 2013
WEATHER CONDITIONS BREAKOUT
WIND DIRECTION BREAKOUT
WEATHER BY HOUR - FEBRUARY 13, 2013
[ °C ]   °F
Local TimeTemperatureDewpointHumidityBarometerVisibilityWind DirectionWind SpeedGust SpeedPrecipitationEventsConditions
1:56 AM25.0 °F21.9 °F88 %29.92 in6.0 miCalmClear
2:56 AM24.1 °F21.0 °F88 %29.91 in6.0 miCalmScattered Clouds
3:42 AM24.8 °F21.2 °F86 %29.87 in5.0 miCalmMostly Cloudy
3:56 AM25.0 °F23.0 °F92 %29.90 in5.0 miCalmOvercast
4:56 AM27.0 °F24.1 °F89 %29.88 in6.0 miCalmOvercast
5:56 AM25.0 °F23.0 °F92 %29.87 in5.0 miNorth (10°)3.5 mphMostly Cloudy
6:56 AM26.1 °F23.0 °F88 %29.86 in5.0 miCalmPartly Cloudy
7:28 AM26.6 °F24.8 °F93 %29.81 in5.0 miNNE (20°)4.6 mphMostly Cloudy
7:56 AM27.0 °F24.1 °F89 %29.84 in4.0 miNNE (20°)5.8 mphOvercast
8:56 AM28.0 °F25.0 °F88 %29.82 in4.0 miNNE (20°)9.2 mphOvercast
9:12 AM28.4 °F24.8 °F86 %29.78 in4.0 miNorth (10°)9.2 mphOvercast
9:28 AM28.4 °F24.8 °F86 %29.79 in5.0 miNNE (20°)10.4 mphOvercast
9:56 AM28.9 °F24.1 °F82 %29.83 in5.0 miNNE (20°)5.8 mphHaze
10:56 AM28.9 °F24.1 °F82 %29.84 in6.0 miNNE (20°)8.1 mphHaze
11:41 AM30.2 °F24.8 °F80 %29.79 in6.0 miNE (50°)3.5 mphHaze
11:56 AM30.0 °F24.1 °F79 %29.82 in6.0 miNE (40°)3.5 mphHaze
12:56 PM30.9 °F25.0 °F79 %29.79 in6.0 miCalmHaze
1:14 PM30.2 °F24.8 °F80 %29.74 in5.0 miCalmHaze
1:56 PM30.9 °F25.0 °F79 %29.77 in5.0 miNW (320°)5.8 mphHaze
2:14 PM30.2 °F24.8 °F80 %29.72 in5.0 miNNW (330°)6.9 mphHaze
2:56 PM30.9 °F25.0 °F79 %29.77 in6.0 miNNW (340°)6.9 mphHaze
3:56 PM30.9 °F25.0 °F79 %29.78 in7.0 miNNW (340°)6.9 mphOvercast
4:40 PM30.2 °F24.8 °F80 %29.74 in8.0 miNNW (330°)10.4 mphScattered Clouds
4:56 PM30.0 °F24.1 °F79 %29.78 in7.0 miNW (320°)8.1 mphClear
5:56 PM30.0 °F24.1 °F79 %29.79 in7.0 miNNW (340°)5.8 mphClear
6:56 PM28.0 °F24.1 °F85 %29.81 in6.0 miWNW (290°)3.5 mphClear
7:56 PM27.0 °F24.1 °F89 %29.84 in6.0 miWest (260°)3.5 mphClear
8:56 PM25.0 °F21.0 °F85 %29.86 in5.0 miCalmClear
9:56 PM25.0 °F21.9 °F88 %29.87 in5.0 miWSW (240°)3.5 mphClear
10:56 PM25.0 °F21.9 °F88 %29.87 in5.0 miSW (230°)3.5 mphClear
11:56 PM25.0 °F21.9 °F88 %29.88 in4.0 miSW (220°)5.8 mphClear
Hourly data recorded from KBJJ, located miles away from Wooster, Ohio







STORIES FROM OUR PARTNERS